Regional Weather Roundup
Issued by NWS Mobile, AL

Home | Current Version | Previous Version | Text Only | Print | Product List | Glossary Off
Versions: 1 2 3 4 5 6 7 8 9 10 11 12 13 14 15 16 17 18 19 20 21 22 23 24 25 26 27

000
ASUS44 KMOB 271013
RWRMOB
REGIONAL WEATHER ROUNDUP
NATIONAL WEATHER SERVICE MOBILE AL
500 AM CDT SAT AUG 27 2016

NOTE: "FAIR" INDICATES FEW OR NO CLOUDS BELOW 12,000 FEET WITH NO
      SIGNIFICANT WEATHER AND/OR OBSTRUCTIONS TO VISIBILITY.

  * THESE STATIONS ARE PART OF THE UNIVERSITY OF SOUTH ALABAMA
    MESONET AND ARE NOT UNDER NWS OR FAA QUALITY CONTROL.

ALZ061>064-271100-
COASTAL ALABAMA

CITY           SKY/WX    TMP DP  RH WIND       PRES   REMARKS
MOBILE REG APT PTCLDY    73  71  93 N3        30.00R
BROOKLEY FIELD PTCLDY    75  73  93 NW6       30.00S
USA CAMPUS*    NOT AVBL
DOG RIVER*     NOT AVBL


CITY           SKY/WX    TMP DP  RH WIND       PRES   REMARKS
MOUNT VERNON*  NOT AVBL
SARALAND*      NOT AVBL
BAY MINETTE*   NOT AVBL
LOXLEY*        NOT AVBL
ROBERTSDALE*   NOT AVBL
FAIRHOPE*      NOT AVBL
ELBERTA*       NOT AVBL
FOLEY*         NOT AVBL
GRAND BAY*     NOT AVBL
DAUPHIN ISLND* NOT AVBL
BON SCOUR NWR* NOT AVBL
GULF SHORES    CLEAR     74  74 100 NE12      29.98S

$$

ALZ051>060-271100-
INTERIOR SOUTHWEST AND SOUTH CENTRAL ALABAMA

CITY           SKY/WX    TMP DP  RH WIND       PRES   REMARKS
GREENVILLE     CLEAR     72  68  87 CALM      30.02R
EVERGREEN      CLEAR     70  68  93 N3        30.02R
CASTLEBERRY*   NOT AVBL
ATMORE*        NOT AVBL
DIXIE*         NOT AVBL
ANDALUSIA/OPP  CLEAR     75  69  81 CALM      30.01S
ANDALUSIA*     NOT AVBL
FLORALA APT    CLEAR     69  67  93 CALM      30.02S
FLORALA*       NOT AVBL

$$

FLZ001>006-271100-
WESTERN FLORIDA PANHANDLE

CITY           SKY/WX    TMP DP  RH WIND       PRES   REMARKS
PENSACOLA      CLEAR     77  73  87 N5        29.98R
NAS PENSACOLA  PTCLDY    76  74  93 N5        29.97S
MILTON         CLEAR     72  70  93 CALM      29.99R
WHTNG S FIELD  NOT AVBL


CITY           SKY/WX    TMP DP  RH WIND       PRES   REMARKS
WALNUT HILL*   NOT AVBL
JAY*           NOT AVBL
DUKE FIELD     CLEAR     70  69  95 N2        29.98R
CRESTVIEW      CLEAR     69  67  93 CALM      30.01R
VALPARAISO     PTCLDY    77  71  82 NE6       29.98S
DESTIN         PTCLDY    80  73  79 E5        29.97S

$$

MSZ076-079-271100-
INTERIOR SOUTHEAST MISSISSIPPI

CITY           SKY/WX    TMP DP  RH WIND       PRES   REMARKS
LEAKESVILLE*   NOT AVBL
AGRICOLA*      NOT AVBL

$$

MARINE OBSERVATIONS

STATION/POSITION TIME  TEMP    WIND        PRES    WAVE
                       AIR SEA DIR/SP/G            HT/PER
                 (UTC) (F)     (DEG/KT/KT) (MB)    (FT/S)
PASCAGOULA       0900   79      20/  5/  6 1014.8R
PETIT BOIS ISLND 0900   82      40/  9/ 10 1015.5R
GRAND BAY        0800   78      10/  5     1016.0S
KATRINA CUT      0900   83      30/  9     1015.9R
CEDAR POINT      0900   80     360/  5     1014.9R
E DAUPHIN ISLAND 0900   83      30/  8/  9 1014.7R
MIDDLE BAY LIGHT 0900   82      40/  9     1014.9R
USCG MOBILE BAY  0900   77 88   10/  5/  6 1015.7S
STATE DOCKS      0900   78 88              1015.2S
MEAHER PARK      0900   77     360/  3     1014.9S
WEEKS BAY        0800   75                   N/A
FORT MORGAN      0900   82      50/ 10/ 11 1014.5R
12 S ORANGE BCH  0950   85 86   70/  8/ 12 1014.6S   2/ 6
PENSACOLA BAY    0900   80 87  360/  3/  4 1015.1S
64 S DAUPHIN ISL 0900   85 86  110/ 10/ 14 1013.8F
67 S FORT MORGAN 0930   84     120/ 10     1013.9F

$$

SELECTED LOCATIONS ACROSS THE REGION

CITY           SKY/WX    TMP DP  RH WIND       PRES   REMARKS
NEW ORLEANS    CLOUDY    79  73  82 E6        29.96S
GULFPORT       PTCLDY    77  75  93 NE3       29.97S
PASCAGOULA AP  CLEAR     74  74 100 CALM      29.98S
PASCAGOULA*    NOT AVBL
HATTIESBURG    CLEAR     74  71  91 CALM      29.99F
LAUREL         CLEAR     70  66  88 CALM      30.00F
MERIDIAN       CLEAR     73  69  87 CALM      30.01S
JACKSON        PTCLDY    74  71  91 CALM      30.00S
MONTGOMERY     PTCLDY    73  68  84 CALM      30.03R
TROY           CLEAR     70  69  97 CALM      30.03R
KINSTON*       NOT AVBL
GENEVA*        NOT AVBL
ASHFORD*       NOT AVBL
DOTHAN         CLEAR     72  71  97 E5        30.05R
PANAMA CITY    CLEAR     74  70  87 NE5       29.97R

$$





USA.gov is the U.S. government's official web portal to all federal, state and local government web resources and services.